GW3874 Weather Reports


time (UTC)temp
C
wind
direction
speed
KPH
gust
KPH
rain 1hr
cm
rain 24hr
cm
rain mn
cm
humidity
%
barometer
mb
20260504211513 10 273 9.7 24.1 0.00 0.05 0.00 64 1001.4
20260504210014 10 217 9.7 22.5 0.00 0.05 0.00 64 1001.5
20260504204519 10 227 11.3 20.9 0.00 0.08 0.00 62 1001.4
20260504203013 10 234 6.4 19.3 0.00 0.08 0.00 62 1001.4
20260504201510 10 279 6.4 12.9 0.00 0.08 0.00 64 1001.5
20260504200016 10 237 4.8 19.3 0.00 0.08 0.00 65 1001.6
20260504194514 8 207 9.7 20.9 0.00 0.10 0.00 67 1001.7
20260504193022 8 197 8.0 17.7 0.00 0.10 0.00 65 1001.8
20260504191511 8 263 9.7 27.4 0.00 0.13 0.00 61 1001.8
20260504190015 9 277 8.0 20.9 0.00 0.18 0.00 57 1001.8
20260504184520 9 196 11.3 29.0 0.00 0.18 0.00 54 1001.7
20260504183018 10 267 12.9 33.8 0.00 0.20 0.00 50 1001.6
20260504181520 10 340 8.0 29.0 0.00 0.23 0.00 44 1001.5
20260504180014 11 319 14.5 37.0 0.00 0.23 0.00 40 1001.4
20260504174516 11 269 8.0 29.0 0.00 0.23 0.00 37 1000.9
20260504173022 12 277 14.5 33.8 0.00 0.25 0.00 35 1000.8
20260504171534 12 242 9.7 27.4 0.00 0.28 0.00 33 1000.7
20260504081529 0 313 11.3 19.3 0.00 0.89 0.00 83 1001.1
20260504050021 2 281 9.7 20.9 0.00 0.89 0.00 85 1000.8
20260504044527 2 308 8.0 20.9 0.00 0.89 0.00 85 1000.9
20260504043028 2 5 9.7 22.5 0.00 0.89 0.00 86 1000.9
20260504041530 2 306 12.9 27.4 0.00 0.89 0.00 86 1000.9
20260504040022 3 325 14.5 27.4 0.00 0.89 0.00 87 1001.0
20260504034523 3 296 11.3 27.4 0.00 0.89 0.89 88 1000.9
20260504033027 3 297 9.7 17.7 0.00 0.89 0.89 91 1000.8
20260504031528 3 316 4.8 12.9 0.00 0.89 0.89 93 1000.9
20260504030027 3 348 4.8 17.7 0.00 0.89 0.89 94 1000.9
20260504024521 3 339 4.8 11.3 0.00 0.89 0.89 94 1000.9
20260504023024 3 321 4.8 8.0 0.00 0.89 0.89 94 1000.9
20260504021508 4 290 3.2 8.0 0.00 0.89 0.89 94 1000.9
20260504020017 4 311 4.8 14.5 0.00 0.89 0.89 93 1001.0
20260504014520 4 347 6.4 16.1 0.00 0.89 0.89 93 1001.2
20260504013023 4 360 4.8 12.9 0.00 0.89 0.89 93 1001.3
20260504011524 4 337 8.0 14.5 0.00 0.89 0.89 93 1001.2
20260504010009 4 339 9.7 17.7 0.00 0.89 0.89 93 1001.0
20260504004521 4 343 4.8 14.5 0.00 0.89 0.89 93 1001.0
20260504003020 4 294 6.4 12.9 0.00 0.89 0.89 93 1000.9
20260504001526 4 332 4.8 20.9 0.00 0.89 0.89 93 1000.7
20260504000025 4 333 6.4 14.5 0.00 0.89 0.89 93 1000.8
20260503234525 4 344 8.0 17.7 0.03 0.89 0.89 93 1000.8
20260503233018 4 342 6.4 16.1 0.03 0.89 0.89 93 1000.9
20260503231522 4 13 6.4 14.5 0.03 0.89 0.89 93 1000.9
20260503230028 5 321 6.4 14.5 0.03 0.89 0.89 92 1000.9
20260503224527 5 346 4.8 17.7 0.03 0.86 0.86 92 1000.9
20260503223011 5 360 6.4 16.1 0.03 0.86 0.86 93 1001.0
20260503221522 5 331 8.0 14.5 0.03 0.86 0.86 93 1001.0
20260503220038 5 336 3.2 8.0 0.03 0.86 0.86 94 1001.2
20260503214524 5 10 3.2 12.9 0.03 0.84 0.84 93 1001.4
20260503213027 5 23 4.8 19.3 0.03 0.84 0.84 93 1001.4